sat.trackr.live / text

‹ back to catalog

STARLINK-31124

NORAD 58674 · 2023-211H

PAYLOAD ACTIVE UNKNOWN

§ Identity

Operator
Country
US
Launch date
2023-12-29
Launch site
AFETR
Launch vehicle
Mass (kg)
RCS (m²)

Purposes: comms

External: N2YO · Heavens-Above · Gunter

§ Orbital elements

Epoch: 2026-09-20T21:47:50.028288Z

Period
94.27 min
Inclination
43.0061°
Eccentricity
0.0002286
Mean motion
15.27580737 rev/d
Perigee alt
481.5 km
Apogee alt
484.6 km
Semi-major
6,861.2 km
B*
5.6219e-6
RAAN
62.5369°
Arg perigee
263.5125°
Mean anomaly
96.5467°
Rev number
15,232

§ Raw data

STARLINK-311241 58674U 23211H   26263.90821792 -.00000108  00000+0  56219-5 0  99932 58674  43.0061  62.5369 0002286 263.5125  96.5467 15.27580737152324

JSON: /api/v1/satellites/58674 · /tle

For live sub-satellite position, see the globe view (requires WebGL).

§ Visibility from observer

Set your observer location to see the next 7 days of passes ≥ 10°. The values pass through the URL so the page stays shareable.

No JS? Fill the form by hand. The geolocation button needs JavaScript.